Location: Klickitat County Star Party
(45.8642°N, 120.6771°W)
Time: 10:13:48
(UTC-07:00)

SO-50 - Pass Details

Date: 31 May 2019
Orbit: 586 x 700 km, 64.6° (Epoch: 20 June)

Event Time Altitude Azimuth Distance (km) Brightness Sun altitude
Rises 01:00:51 0° 325° (NW) 3,087 ? -22.2°
Reaches altitude 10° 01:03:16 10° 330° (NNW) 2,159 ? -22.2°
Maximum altitude 01:08:08 57° 49° (NE) 804 ? -22.2°
Enters shadow 01:10:15 31° 115° (ESE) 1,182 ? -22.2°
